CLUSTER II-FM6 (SALSA) (26411 NORAD) Tracking and Keplerian Element Data

This shows tracking and keplerian element data for the satellite.

Feedback or suggestion? Click here.




ElementValue
Catalog26411
NameCLUSTER II-FM6 (SALSA)
Epoch Orbit836
Epoch Day23.25391152
Epoch Year2019
RAAN338.9191
Inclination130.4314
Eccentricity0.5055666
Argument of Perigee176.3
Mean Anonmoly358.8115
Mean Motion0.44277489
Decay Rate0
L11 26411U 00041B 19023.25391152 .00000000 00000-0 00000-0 0 9992
L22 26411 130.4314 338.9191 5055666 176.3000 358.8115 0.44277489 8369

Live tracking and technical data element details for CLUSTER II-FM6 (SALSA) (NORAD 26411). CLUSTER II-FM6 (SALSA) can be tracked NOW for your location showing map with azimuth and elevation plus other details from your city location.

Track the satellite on the map from your city or location and see movement details for azimuth, elevation, latitude, longitude, range, height, and movement on the map or in text.







IsCatalogInMostPopularTable: catalog: 26411, numindb: 75
Update: records affected: 1



GetName: 26411 CLUSTER II-FM6 (SALSA)

Hit Count: updated at: Mon, 21 Jan 2019 18:55:25 GMT